TITAN 3C TRANSTAGE DEB, 26777

Orbit data source: Space-Track

TITAN 3C TRANSTAGE DEB, 26777 is space debris in HEO originally from a launch on Tue, 21 Dec 1965 UTC launched from the Air Force Eastern Test Range (AFETR). Debris objects in space refer to the collection of defunct objects orbiting the Earth. Examples of debris include non-operational satellites, rocket bodies, and fragments generated from explosions, collisions, or faulty payload assembly.

Loading next visibility...
Identifier
26777, 1965-108AV
Orbit
HEO
Country
Flag of USUS
Related business
Manufacturer
Unknown
Mission
Spacecraft
Bus & Motor
Unknown
Mass
Unknown
Launch date (UTC)
1965-12-21 (61 years ago)
Launch vehicle
Unknown
Launch site
Air Force Eastern Test Range (AFETR)
Object type
Payload
Rocket body
Debris
Shape & HBR
Unknown shape, 0.2 m
Radar Cross Section
Medium (>0.1 m² and <1 m²)

Expand to show TLE details & history
Last TLE update: 1 week ago

TLE from 1 week ago
0 TITAN 3C TRANSTAGE DEB
1 26777U 65108AV  26247.03943493 -.00000009  00000-0  00000-0 0  9995
2 26777  26.6600 165.4126 6694154 126.2501 355.7918  2.56622149 48061
Epoch: 2026-09-04T00:56Z
TLE epoch observation values (Epoch: 2026-09-04T00:56:47.177Z)
Latitude
26.52265°
Longitude
-92.98959°
Altitude
1,445.883 km
Speed
9.179 km/s
True Right ascension
17h 37m 30s
True Declination
26° 23' 51"
Sunlit
Object was in daylight at epoch
Visualization orbit readout
Latitude
Unknown
Longitude
Unknown
Altitude
Unknown
Speed
Unknown
Apparent Right ascension
Unknown
Apparent Declination
Unknown
Sunlit
N/A
Visualization observer readout
Local Sidereal Time
19:04:52
Azimuth
Unknown
Elevation
Unknown
Doppler factor
Unknown
Orbital elements
Apogee altitude
31,249.004 km
Perigee altitude
1,072.946 km
Semi-major axis
22,539.112 km
Eccentricity
0.66942
Inclination
26.66°
RAAN
165.4126°
Arg. of periapsis
126.2501°
True anomaly
332.28781°
Mean anomaly
355.7918°
Eccentric anomaly
347.47209°
Mean motion
0.64141 °/min
Orbital period
561.26 mins
BSTAR
0
Loading maneuver chart data...
Computing Atmospheric mass density...

Documentation

Showing up to 5 results
|